CET,Max TemperatureF,Mean TemperatureF,Min TemperatureF,Max Dew PointF,MeanDew PointF,Min DewpointF,Max Humidity, Mean Humidity, Min Humidity, Max Sea Level PressureIn, Mean Sea Level PressureIn, Min Sea Level PressureIn, Max VisibilityMiles, Mean VisibilityMiles, Min VisibilityMiles, Max Wind SpeedMPH, Mean Wind SpeedMPH, Max Gust SpeedMPH,PrecipitationIn, CloudCover, Events, WindDirDegrees
2013-1-1,47,44,42,45,39,35,93,78,59,29.98,29.72,29.53,16,7,4,21,16,,0.01,5,Rain,267
2013-1-2,46,45,44,45,40,37,93,83,70,30.31,30.20,29.98,11,6,1,21,14,,0.01,4,Rain,254
2013-1-3,51,48,44,48,46,43,94,90,83,30.63,30.47,30.33,6,3,1,16,10,,0.00,4,Rain,236
2013-1-4,48,47,46,46,44,41,93,87,76,30.66,30.62,30.60,9,5,2,14,11,,0.00,6,Rain,263
2013-1-5,48,46,44,45,44,42,93,88,80,30.61,30.57,30.54,7,5,2,13,9,,0.01,6,Rain,263
2013-1-6,48,44,41,45,43,39,93,88,83,30.55,30.48,30.45,9,4,0,13,7,,0.00,5,Fog,252
2013-1-7,44,42,41,43,40,37,93,89,81,30.45,30.37,30.30,4,2,1,13,7,,0.00,6,Rain,212
2013-1-8,45,42,40,41,40,39,93,87,81,30.32,30.29,30.24,6,4,2,13,10,,0.00,6,,207
2013-1-9,46,42,37,43,40,32,93,87,75,30.26,30.15,30.06,9,4,1,12,9,,0.12,6,Rain,253
2013-1-10,44,40,35,37,34,32,93,79,56,30.08,29.97,29.89,16,7,6,14,5,,0.00,4,,272
2013-1-11,42,36,30,38,31,27,87,82,71,30.10,30.03,29.95,9,6,2,13,9,,0.08,5,Rain-Snow,87
2013-1-12,35,31,27,28,26,23,87,81,71,30.07,29.99,29.92,6,5,3,16,8,,0.00,5,Snow,98
2013-1-13,33,30,24,27,24,19,86,76,55,30.11,30.04,29.98,16,6,2,15,12,,0.00,4,Snow,65
2013-1-14,33,26,21,28,23,19,93,83,65,30.09,29.89,29.53,7,4,0,20,7,,0.24,4,Snow,187
2013-1-15,35,27,19,31,26,16,93,78,52,29.86,29.69,29.53,16,6,2,17,12,,0.00,5,Rain-Snow,45
2013-1-16,30,20,11,25,16,10,93,85,63,30.01,29.89,29.83,6,4,2,7,3,,0.00,2,Fog-Snow,164
2013-1-17,21,16,12,16,13,10,93,85,67,30.12,30.07,30.01,6,2,0,9,4,,0.00,5,Fog,135
2013-1-18,29,22,15,23,21,17,93,83,68,30.01,29.76,29.50,5,3,1,14,9,,0.02,5,Snow,111
2013-1-19,27,26,24,25,21,17,86,77,67,29.51,29.45,29.42,6,4,2,20,14,,0.01,4,Snow,73
2013-1-20,23,22,21,20,19,16,86,81,66,29.45,29.35,29.30,6,2,0,20,14,,0.20,6,Fog-Snow,75
2013-1-21,33,27,21,29,26,19,93,85,76,29.56,29.41,29.33,3,2,1,25,9,,0.00,6,Snow,135
2013-1-22,33,28,23,27,24,19,93,82,60,29.74,29.64,29.56,4,3,1,12,6,,0.00,8,Fog,103
2013-1-23,25,23,21,25,21,19,100,88,80,29.84,29.79,29.74,2,1,0,12,9,,0.00,6,Fog-Snow,74
2013-1-24,27,20,12,21,18,10,100,82,61,30.15,30.00,29.83,7,4,2,15,8,,0.00,3,Fog,69
2013-1-25,26,16,6,21,17,7,100,82,69,30.17,30.05,29.77,4,3,0,21,5,,0.00,5,Fog,158
2013-1-26,35,30,25,32,26,21,93,83,73,29.88,29.79,29.71,6,4,1,18,14,,0.03,5,Rain-Snow,185
2013-1-27,46,39,32,39,34,31,93,83,66,29.77,29.56,29.44,11,6,3,22,16,32,0.20,5,Rain,201
2013-1-28,48,40,33,45,37,32,93,85,71,29.92,29.78,29.65,19,7,3,28,12,39,0.04,3,Rain,207
2013-1-29,55,49,43,52,49,46,94,88,81,29.75,29.72,29.68,19,6,2,30,23,44,0.31,6,Rain,231
2013-1-30,54,50,46,52,46,39,94,83,69,30.04,29.76,29.59,12,6,3,31,25,45,0.08,4,Rain,239
2013-1-31,50,46,42,44,40,37,93,80,70,30.07,29.94,29.86,10,6,4,30,20,44,0.04,2,Rain,235